Wind_Speed
10 12 13 13 13 12 14 23 24 14 18 23 21 18 20 21 18 16 23 14 15 27 33 28 20 16 10 14 16 19 19 21 18 12 12 10 7 8 10 11 13 12 13 11
9 7 10 10 11 16 17 18 26 27 29 29 26 21 18 21 19 20 18 20 13 17 28 33 26 25 21 16 20 22 22 22 25 22 17 14 14 14 14 16 18 13 14 15
14 5 13 16 15 15 17 16 17 17 18 18 14 15 14 11 16 20 16 17 21 23 16 26 33 27 27 25 21 22 24 23 24 23 21 20 18 17 17 18 20 21 18 23
18 20 20 17 16 17 18 13 17 16 17 14 8 14 13 18 22 12 20 20 7 12 17 21 33 36 22 30 28 26 25 27 25 27 23 24 24 24 24 23 27 28 25 29
10 15 19 15 16 18 15 19 16 15 16 17 15 13 6 10 12 8 12 16 27 26 23 33 31 25 33 28 31 29 26 27 29 29 32 30 30 31 31 31 33 34 33 33
16 15 12 14 17 18 18 17 13 12 11 12 8 11 5 9 10 15 22 28 30 29 31 37 39 37 38 33 33 35 32 27 31 34 36 38 31 35 37 36 38 41 42 37
9 10 11 15 16 15 13 13 9 6 7 9 11 11 9 13 16 21 27 33 25 22 33 30 27 29 28 30 33 35 36 33 35 36 39 41 42 41 38 39 40 45 47 43
3 14 19 13 11 11 12 10 10 10 11 14 12 10 9 22 31 35 38 39 40 39 35 34 28 29 28 29 33 37 41 41 41 39 41 43 42 48 54 38 44 47 46 47
12 9 19 22 13 11 5 12 10 16 18 19 11 12 21 30 29 36 32 26 28 33 33 34 33 31 33 32 33 34 39 45 49 49 45 45 47 47 50 47 46 49 52 52
24 25 10 15 14 14 14 14 17 14 10 10 4 17 21 21 28 31 32 33 36 39 37 37 37 36 38 37 37 36 38 43 46 47 50 54 54 54 55 56 55 55 56 58
26 29 24 12 12 6 8 12 9 16 22 16 15 10 21 23 34 38 38 41 43 46 47 46 44 42 43 43 42 43 43 47 48 46 49 51 52 54 55 58 61 62 62 64
28 26 27 27 20 23 19 21 24 26 23 20 18 17 33 35 38 43 47 48 49 50 52 52 53 51 49 48 48 48 49 52 53 52 53 55 56 55 55 56 57 58 58 61
26 26 25 24 20 17 23 31 31 32 32 30 28 25 31 37 50 52 52 53 50 50 51 49 52 51 54 55 56 55 55 58 58 59 59 60 59 61 62 61 60 59 60 60
30 29 27 27 22 25 28 23 27 30 31 29 29 21 26 33 49 56 60 55 51 53 54 56 59 63 61 59 61 62 63 63 63 63 62 64 65 65 67 67 67 66 65 63
30 28 29 29 28 28 34 35 36 35 38 39 35 37 34 46 55 61 63 61 54 55 58 60 65 67 56 55 61 63 65 66 67 68 66 67 67 69 68 71 72 70 70 69
30 28 30 29 28 31 33 32 35 36 37 38 39 37 51 53 51 52 56 58 59 64 62 58 58 61 63 57 57 59 60 61 63 65 67 69 71 72 72 74 73 72 71 73
29 29 30 30 30 33 33 36 39 40 38 42 38 44 53 48 48 48 51 58 67 64 58 54 54 54 53 51 50 53 53 54 56 58 60 64 68 72 73 74 76 75 75 72
29 29 30 32 33 37 38 42 43 42 41 44 44 49 49 47 48 49 51 62 59 57 55 49 47 48 50 52 54 54 54 53 54 53 55 59 64 68 69 71 69 72 75 75
33 32 37 37 38 39 38 49 48 46 46 46 47 50 48 48 49 47 53 48 51 51 49 49 50 50 49 47 46 43 43 47 47 47 49 52 53 53 55 61 65 65 69 72
37 38 39 39 40 41 45 50 48 50 49 53 47 48 50 47 47 46 41 42 43 45 48 47 44 39 40 42 44 43 45 49 52 56 59 61 62 63 61 56 55 56 60 64
41 40 39 38 40 40 50 50 49 48 50 46 47 46 44 43 42 41 37 38 41 42 42 39 38 39 39 39 43 44 50 57 61 65 64 62 60 61 58 59 56 55 53 55
43 45 45 43 43 44 49 50 46 45 46 46 45 44 43 41 37 37 38 36 35 34 33 34 34 35 38 41 44 47 52 56 53 52 50 49 47 45 48 53 53 52 54 53
43 45 41 43 45 47 50 48 47 42 42 42 41 40 40 37 36 35 33 32 31 31 31 31 33 35 36 40 45 49 52 52 46 48 49 49 50 51 48 47 48 50 52 52
45 45 42 41 39 45 49 46 42 39 39 40 39 38 36 34 32 30 28 30 31 29 29 30 33 34 38 42 48 54 55 54 47 48 54 55 54 54 51 52 50 48 47 51
40 44 41 36 41 43 44 45 41 38 38 36 34 34 33 30 28 27 28 26 25 27 28 32 35 37 38 44 51 50 51 43 44 49 50 50 47 45 43 43 45 45 46 47
38 42 39 38 40 35 40 41 40 36 34 32 31 29 28 27 27 27 26 25 25 28 29 31 32 36 41 45 46 45 43 38 46 47 48 45 40 36 33 32 32 35 39 43
Wind_Direction
210 216 219 213 220 235 205 236 216 201 222 232 256 255 215 225 247 260 266 275 265 286 301 307 296 295 287 294 303 325 322 328 306 290 288 281 276 266 295 313 314 317 328 343
221 230 236 214 222 239 236 236 222 214 217 231 241 261 264 244 227 239 243 260 254 274 288 296 296 282 283 290 291 304 309 311 315 296 270 264 272 279 284 290 308 315 308 315
241 269 231 238 248 247 246 247 239 236 236 247 263 278 284 296 241 246 222 258 238 230 256 289 290 283 265 275 278 283 290 300 308 287 280 273 273 276 282 290 299 294 293 286
233 225 249 250 247 248 247 258 259 251 256 251 239 287 281 308 305 273 231 258 297 244 255 280 273 275 269 260 267 270 279 286 288 284 281 278 271 276 276 278 285 291 297 298
226 243 245 251 243 242 234 225 247 266 258 262 252 270 274 278 266 259 214 249 238 232 229 212 232 272 276 261 263 261 263 273 283 283 276 272 271 273 276 277 279 284 289 295
233 250 242 238 239 239 240 256 263 265 267 272 301 260 229 255 236 231 230 230 238 240 242 243 252 271 275 270 269 264 264 269 270 271 275 271 270 270 271 275 276 280 282 284
239 262 267 246 242 247 242 250 251 300 294 332 280 250 183 261 234 221 227 236 266 275 271 268 264 264 268 267 269 271 268 261 258 265 266 272 273 268 267 274 276 277 281 278
281 280 289 261 240 233 256 255 220 224 243 268 308 214 265 256 259 260 261 269 273 275 277 278 275 274 269 271 268 267 271 272 268 261 260 265 266 270 266 254 267 274 275 281
182 209 209 236 244 228 202 242 266 263 239 244 254 271 264 244 240 254 261 264 274 281 274 278 283 284 278 270 267 270 268 268 269 270 267 260 260 264 271 268 258 266 271 271
194 188 226 252 242 236 240 220 233 249 278 265 270 264 245 251 264 276 284 283 283 282 280 280 284 288 284 281 277 272 265 264 266 269 271 271 267 261 260 263 266 267 267 271
219 215 210 238 283 256 268 278 262 255 227 239 247 289 292 281 288 286 281 281 280 281 284 287 289 287 282 280 278 276 272 271 270 266 266 265 266 269 270 267 265 263 266 269
233 231 226 231 220 236 236 251 250 256 258 255 248 240 268 273 277 278 274 272 273 275 278 282 284 284 282 278 277 275 273 270 269 267 266 267 268 266 264 262 266 269 269 270
251 254 253 253 258 271 259 264 263 265 267 274 270 266 274 275 273 271 271 275 276 280 283 284 281 279 278 280 281 280 276 272 271 268 267 266 265 267 267 265 263 261 264 268
253 255 258 257 242 244 237 250 266 276 274 274 273 261 248 273 281 279 281 285 289 289 286 282 281 279 281 281 279 277 276 275 273 271 268 266 264 262 263 265 264 264 263 262
255 260 259 259 260 249 255 264 271 274 278 280 285 278 270 262 269 278 288 295 294 290 285 284 286 291 293 284 277 277 277 276 276 275 272 269 267 266 263 261 262 262 264 263
256 262 263 265 266 267 266 269 272 275 276 278 278 278 273 275 284 290 293 295 293 286 290 294 293 289 289 289 286 284 282 281 279 277 275 272 270 267 265 265 263 261 260 259
256 258 265 269 270 270 274 282 278 281 284 279 282 277 282 291 292 290 288 285 285 293 297 291 289 291 290 290 287 285 284 284 282 280 278 276 274 272 269 265 265 263 262 256
264 265 267 270 271 274 279 278 279 281 285 286 286 284 292 290 287 287 285 285 294 292 292 295 293 292 291 290 290 289 289 288 286 285 282 279 276 274 272 272 268 263 260 258
265 269 273 275 276 279 282 281 282 284 287 288 288 290 290 287 287 285 285 289 289 293 295 296 297 297 298 299 299 301 301 299 300 298 295 292 289 286 283 277 272 268 263 257
271 273 274 277 278 281 280 282 286 289 289 289 293 289 289 291 288 289 289 289 291 292 294 295 297 301 303 305 306 306 306 303 300 299 297 293 290 284 278 276 274 273 265 260
274 273 275 276 278 278 277 283 284 284 285 291 288 290 290 288 290 292 291 289 289 291 293 296 302 305 308 307 307 307 308 306 303 299 297 293 290 284 281 275 268 266 272 266
276 277 281 283 281 280 283 285 287 291 291 290 293 294 292 292 291 290 290 290 289 292 296 299 305 308 306 307 310 311 314 311 311 309 304 299 294 294 292 281 271 266 263 268
269 271 276 277 280 284 283 285 290 291 288 292 288 286 289 288 290 290 292 291 290 292 294 300 306 306 308 309 312 315 314 317 311 311 309 301 296 292 288 287 282 271 264 263
270 271 273 274 277 279 281 288 287 291 286 284 289 285 285 287 288 290 287 286 292 297 301 305 306 306 309 311 315 318 321 317 312 311 311 303 296 293 289 285 280 275 267 262
272 275 274 274 274 278 284 284 289 283 284 284 281 283 284 284 284 280 281 291 299 303 305 308 310 312 312 316 320 321 324 323 321 319 320 315 305 298 293 290 279 270 267 266
264 272 283 280 280 280 280 281 281 285 284 282 282 282 281 280 281 280 287 296 301 302 305 308 311 312 318 321 324 325 324 325 328 325 329 329 318 312 306 297 288 281 278 270
Height
5898 5900 5902 5904 5905 5907 5910 5913 5915 5918 5923 5922 5920 5917 5919 5922 5925 5925 5923 5920 5921 5915 5910 5912 5912 5912 5912 5912 5911 5912 5911 5911 5910 5909 5908 5908 5908 5908 5907 5906 5906 5906 5905 5904
5898 5899 5900 5902 5904 5903 5904 5906 5909 5910 5911 5912 5912 5912 5914 5913 5916 5919 5920 5918 5920 5919 5911 5905 5909 5909 5910 5910 5909 5909 5909 5909 5909 5908 5906 5906 5906 5906 5905 5904 5905 5904 5904 5903
5894 5896 5897 5898 5900 5901 5902 5903 5905 5907 5908 5908 5907 5908 5908 5910 5909 5912 5914 5914 5914 5914 5912 5903 5900 5903 5905 5906 5907 5906 5905 5906 5905 5905 5905 5904 5904 5904 5903 5902 5901 5902 5901 5900
5890 5891 5892 5895 5896 5898 5899 5900 5900 5902 5903 5904 5907 5905 5907 5906 5905 5906 5908 5910 5909 5911 5906 5906 5900 5898 5901 5900 5901 5902 5902 5901 5901 5900 5902 5901 5901 5900 5899 5899 5897 5896 5896 5896
5887 5887 5888 5890 5892 5893 5895 5894 5896 5898 5899 5899 5901 5903 5905 5906 5905 5905 5906 5906 5901 5902 5903 5896 5895 5893 5893 5894 5891 5893 5896 5897 5896 5896 5894 5895 5896 5896 5895 5893 5891 5891 5892 5891
5882 5883 5885 5886 5887 5889 5890 5892 5894 5895 5896 5897 5899 5900 5904 5904 5903 5902 5897 5894 5894 5897 5896 5896 5894 5893 5889 5887 5886 5885 5888 5893 5892 5889 5889 5887 5889 5891 5888 5888 5886 5883 5883 5887
5879 5881 5881 5882 5884 5885 5888 5889 5891 5893 5895 5896 5897 5900 5902 5900 5898 5892 5888 5888 5892 5893 5890 5889 5891 5890 5886 5883 5881 5879 5878 5883 5884 5884 5883 5882 5880 5879 5881 5880 5879 5877 5873 5877
5881 5883 5878 5878 5881 5883 5883 5886 5888 5891 5893 5894 5891 5895 5898 5894 5893 5891 5888 5887 5889 5886 5881 5880 5884 5882 5881 5878 5876 5874 5871 5870 5871 5875 5876 5875 5874 5870 5869 5871 5869 5868 5868 5865
5876 5881 5875 5874 5878 5880 5883 5885 5887 5886 5886 5888 5893 5896 5892 5880 5878 5878 5880 5882 5881 5879 5876 5874 5873 5873 5871 5872 5871 5869 5867 5863 5861 5860 5862 5864 5865 5863 5861 5860 5860 5859 5857 5858
5869 5872 5874 5873 5873 5877 5878 5880 5880 5882 5882 5884 5888 5881 5878 5876 5873 5874 5874 5874 5873 5871 5870 5868 5864 5864 5861 5860 5861 5863 5861 5856 5854 5853 5851 5849 5849 5851 5851 5850 5850 5848 5849 5846
5865 5866 5868 5871 5870 5872 5876 5873 5875 5875 5877 5878 5880 5884 5872 5870 5867 5864 5864 5864 5863 5862 5859 5856 5855 5854 5852 5850 5849 5849 5849 5845 5844 5846 5843 5839 5838 5836 5836 5836 5835 5836 5835 5835
5856 5859 5863 5864 5865 5865 5867 5868 5868 5867 5871 5872 5873 5878 5867 5867 5863 5856 5853 5854 5855 5854 5849 5848 5843 5841 5839 5838 5837 5836 5836 5831 5830 5832 5831 5827 5826 5824 5824 5823 5822 5820 5822 5821
5851 5854 5856 5858 5863 5863 5860 5858 5860 5860 5860 5862 5865 5868 5862 5857 5844 5844 5843 5842 5844 5842 5839 5837 5831 5830 5826 5825 5823 5822 5820 5815 5816 5815 5814 5813 5812 5809 5807 5808 5808 5808 5807 5807
5845 5847 5850 5851 5855 5851 5850 5851 5851 5852 5852 5855 5856 5859 5858 5848 5830 5824 5825 5831 5834 5830 5825 5820 5816 5811 5813 5812 5807 5803 5801 5798 5795 5795 5796 5795 5793 5794 5790 5789 5789 5790 5791 5792
5838 5841 5841 5843 5844 5846 5843 5843 5844 5844 5843 5842 5845 5845 5845 5834 5827 5820 5814 5812 5817 5812 5806 5803 5797 5791 5800 5794 5786 5782 5780 5778 5774 5774 5775 5773 5772 5771 5772 5769 5770 5772 5772 5774
5831 5833 5832 5835 5836 5834 5834 5836 5835 5835 5835 5833 5831 5832 5820 5818 5819 5814 5807 5801 5796 5787 5791 5792 5787 5778 5773 5775 5770 5765 5762 5759 5756 5753 5751 5749 5748 5747 5748 5746 5748 5749 5752 5753
5824 5825 5825 5826 5826 5825 5826 5825 5823 5822 5822 5819 5821 5814 5805 5808 5806 5804 5800 5790 5774 5777 5778 5775 5769 5765 5761 5758 5755 5750 5746 5743 5739 5735 5732 5728 5724 5721 5722 5723 5723 5725 5726 5731
5814 5817 5817 5817 5818 5816 5816 5812 5811 5811 5811 5805 5806 5801 5800 5796 5792 5789 5784 5770 5771 5765 5761 5759 5756 5752 5747 5742 5737 5733 5730 5726 5722 5718 5715 5710 5705 5701 5699 5698 5700 5699 5699 5702
5806 5808 5806 5807 5807 5807 5806 5795 5798 5800 5798 5795 5792 5788 5785 5783 5779 5776 5766 5765 5756 5752 5748 5745 5741 5737 5733 5728 5723 5719 5716 5710 5706 5701 5697 5692 5688 5683 5679 5677 5675 5674 5672 5676
5795 5796 5797 5797 5796 5795 5788 5785 5787 5784 5783 5777 5780 5775 5770 5768 5763 5759 5757 5751 5747 5742 5738 5734 5731 5727 5721 5717 5712 5708 5703 5697 5690 5684 5678 5672 5666 5662 5659 5657 5655 5650 5648 5651
5784 5784 5785 5785 5784 5784 5774 5775 5775 5775 5774 5769 5763 5761 5759 5755 5750 5746 5745 5742 5737 5732 5729 5724 5719 5716 5711 5707 5702 5698 5691 5682 5675 5667 5658 5650 5643 5638 5634 5634 5632 5631 5629 5629
5773 5771 5770 5771 5771 5769 5765 5763 5765 5762 5758 5754 5751 5746 5743 5741 5740 5737 5734 5731 5728 5724 5721 5716 5713 5708 5703 5697 5691 5685 5677 5667 5656 5648 5641 5634 5627 5621 5617 5613 5611 5611 5611 5611
5764 5762 5764 5762 5759 5755 5751 5751 5751 5751 5747 5744 5739 5735 5733 5731 5730 5727 5724 5721 5719 5717 5714 5710 5705 5701 5695 5688 5681 5675 5665 5654 5645 5636 5627 5620 5613 5607 5602 5597 5595 5594 5594 5594
5751 5751 5753 5752 5750 5744 5739 5741 5741 5741 5736 5730 5729 5727 5725 5723 5721 5719 5717 5714 5712 5709 5706 5702 5697 5692 5686 5679 5670 5661 5652 5641 5631 5623 5614 5605 5596 5590 5586 5581 5579 5578 5578 5579
5741 5736 5739 5742 5738 5736 5732 5728 5729 5727 5725 5723 5721 5718 5716 5715 5713 5712 5710 5707 5704 5700 5696 5692 5687 5682 5676 5669 5660 5650 5641 5630 5622 5612 5601 5590 5580 5574 5569 5565 5563 5562 5563 5564
5730 5727 5728 5727 5725 5727 5722 5719 5718 5718 5715 5713 5712 5710 5708 5707 5706 5704 5701 5699 5696 5692 5688 5684 5679 5674 5668 5660 5651 5641 5632 5623 5613 5604 5593 5582 5571 5563 5558 5554 5553 5552 5551 5551